Home   Weather   Surat   Past weeks

Flag for India Past Weather in Surat, Gujarat, India — Yesterday and Last 2 Weeks

82 °F


Feels Like: 84 °F
Forecast: 75 / 93 °F
Wind: No wind

Location: Ahmadabad Airport

Current Time: Oct 26, 2016 at 9:09:59 PM

Latest Report: Oct 26, 2016 at 8:30 PM

Visibility: 2 mi

Pressure: 29.92 "Hg

Humidity: 55%

Dew Point: 64 °F

Location of SuratLocation

Past Weather in Surat — Graph


Surat Temperature Yesterday

Maximum temperature yesterday: 90 °F (at 2:30 PM)
Minimum temperature yesterday: 73 °F (at 5:00 AM)
Average temperature yesterday: 81 °F

High & Low Weather Summary for the Past Weeks

High97 °F (Oct 17, 3:00 PM)89% (Oct 12, 3:30 AM)29.95 "Hg (Oct 12, 3:30 AM)
Low70 °F (Oct 20, 6:30 AM)26% (Oct 18, 3:00 PM)29.74 "Hg (Oct 12, 3:00 PM)
Average82 °F61%29.85 "Hg
* Reported Oct 11 7:30 PM — Oct 26 8:00 PM, Surat, Weather by CustomWeather, © 2016

Note: Actual official high and low records may vary slightly from our data, if they occured in-between our weather recording intervals... More about our weather records


Surat Weather History for the Previous 24 Hours

Scroll right to see more
Time TempWeatherWind HumidityBarometerVisibility
8:00 PM
Wed, Oct 26
82 °FClear.No wind51%29.92 "Hg2 mi
7:00 PM84 °FPassing clouds.No wind48%29.89 "Hg2 mi
6:30 PM84 °FPassing clouds.No wind48%29.86 "Hg2 mi
5:30 PM90 °FPassing clouds.3 mph38%29.86 "Hg3 mi
3:30 PM91 °FPassing clouds.3 mph34%29.86 "Hg4 mi
3:00 PM91 °FPassing clouds.3 mph36%29.86 "Hg4 mi
2:30 PM91 °FClear.7 mph36%29.86 "Hg4 mi
2:00 PM91 °FClear.6 mph36%29.86 "Hg4 mi
1:30 PM91 °FClear.3 mph38%29.86 "Hg4 mi
1:00 PM90 °FClear.6 mph43%29.89 "Hg4 mi
12:30 PM90 °FClear.No wind43%29.89 "Hg4 mi
12:00 PM90 °FClear.2 mph46%29.92 "Hg4 mi
11:30 AM88 °FClear.No wind52%29.92 "Hg3 mi
11:00 AM88 °FClear.3 mph49%29.95 "Hg3 mi
10:30 AM86 °FClear.3 mph52%29.95 "Hg3 mi
10:00 AM84 °FPassing clouds.3 mph58%29.95 "Hg2 mi
9:30 AM81 °FHaze.5 mph66%29.95 "Hg2 mi
9:00 AM77 °FHaze.3 mph74%29.95 "Hg1 mi
8:30 AM75 °FFog.3 mph78%29.92 "Hg1 mi
8:00 AM73 °FFog.3 mph78%29.92 "Hg1 mi
7:30 AM72 °FFog.No wind83%29.89 "Hg1 mi
7:00 AM70 °FFog.No wind83%29.89 "Hg1 mi
6:30 AM72 °FFog.No wind83%29.89 "Hg2 mi
6:00 AM72 °FHaze.No wind78%29.86 "Hg2 mi
5:30 AM72 °FHaze.No wind83%29.86 "Hg2 mi
5:00 AM72 °FHaze.No wind83%29.83 "Hg2 mi
4:30 AM72 °FHaze.No wind83%29.83 "Hg2 mi
4:00 AM73 °FHaze.No wind83%29.83 "Hg2 mi
3:30 AM73 °FHaze.No wind78%29.83 "Hg2 mi
3:00 AM75 °FHaze.No wind74%29.83 "Hg2 mi
2:00 AM75 °FHaze.No wind78%29.86 "Hg2 mi
1:30 AM77 °FHaze.No wind74%29.86 "Hg2 mi
1:00 AM77 °FHaze.3 mph65%29.86 "Hg2 mi
12:30 AM77 °FPassing clouds.No wind65%29.86 "Hg2 mi
12:00 AM77 °FPassing clouds.No wind65%29.86 "Hg2 mi
11:30 PM
Tue, Oct 25
77 °FPassing clouds.5 mph65%29.86 "Hg2 mi
11:00 PM79 °FPassing clouds.No wind65%29.89 "Hg2 mi
10:30 PM81 °FPassing clouds.No wind58%29.89 "Hg2 mi
10:00 PM82 °FPassing clouds.No wind55%29.86 "Hg2 mi
9:30 PM82 °FPassing clouds.No wind55%29.86 "Hg2 mi
9:00 PM84 °FPassing clouds.No wind48%29.86 "Hg2 mi
Weather by CustomWeather, © 2016

See weather overviewHow to use our weather pages